This demonstration page uses our WeatherBlox Daily Observations layout. Learn more.

Left ArrowRight Arrow

Hourly Observations for January 9, 2022

Temp ( °F °C ) Dew Point ( °F °C ) Humidity (%) Winds ( mph kmh ) Pressure ( in mb ) Visibility ( mi km ) Precip ( " mm )
12:53 am 00:53 Cloudy 61 16.1 58 14.4 90 90 SW 13 20 29.97 1015 10 16 0.00 0.00
1:53 am 01:53 Cloudy 60 15.6 58 14.4 93 93 SSW 7 11 29.97 1015 10 16 0.00 0.00
2:01 am 02:01 Mostly Cloudy 60 15.6 58 14.4 93 93 SSW 6 9 29.98 1015 10 16 0.00 0.00
2:19 am 02:19 Partly Cloudy 59 15 57 13.9 93 93 SSW 6 9 29.98 1015 10 16 0.00 0.00
2:53 am 02:53 Partly Cloudy 57 13.9 56 13.3 96 96 S 7 11 29.97 1015 9 14 0.00 0.00
3:53 am 03:53 Clear with Mist and Fog 56 13.3 55 12.8 97 97 S 5 7 29.99 1016 6 10 0.00 0.00
4:53 am 04:53 Mostly Clear with Mist and Fog 55 12.8 54 12.2 96 96 SW 7 11 30.01 1016 6 10 0.00 0.00
5:10 am 05:10 Mostly Cloudy with Mist and Fog 55 12.8 54 12.2 96 96 SW 6 9 30.03 1017 6 10 0.00 0.00
5:29 am 05:29 Partly Cloudy with Mist and Fog 55 12.8 54 12.2 96 96 SW 3 6 30.05 1018 5 8 0.00 0.00
5:53 am 05:53 Mostly Clear with Mist and Fog 53 11.7 53 11.7 100 100 Calm 30.06 1018 4 6 0.00 0.00
6:08 am 06:08 Clear with Mist and Fog 53 11.7 53 11.7 100 100 Calm 30.08 1019 2 2 0.00 0.00
6:15 am 06:15 Mostly Clear with Mist and Fog 51 10.6 51 10.6 100 100 W 3 6 30.09 1019 3 4 0.00 0.00
6:18 am 06:18 Mostly Cloudy with Mist and Fog 51 10.6 51 10.6 100 100 Calm 30.09 1019 3 4 0.00 0.00
6:53 am 06:53 Cloudy with Mist and Fog 53 11.7 52 11.1 96 96 WNW 9 15 30.10 1019 6 10 0.00 0.00
7:09 am 07:09 Cloudy 51 10.6 50 10 96 96 WNW 12 19 30.14 1021 7 11 0.00 0.00
7:37 am 07:37 Cloudy 50 10 48 8.9 93 93 WNW 10 17 30.16 1021 10 16 0.00 0.00
7:53 am 07:53 Cloudy 50 10 47 8.3 89 89 WNW 10 17 30.16 1022 10 16 0.00 0.00
8:13 am 08:13 Cloudy 50 10 48 8.9 93 93 WNW 12 19 30.20 1023 10 16 0.00 0.00
8:53 am 08:53 Cloudy 51 10.6 49 9.4 92 92 NW 12 19 30.19 1023 8 13 0.00 0.00
9:53 am 09:53 Cloudy with Mist and Fog 51 10.6 50 10 96 96 NNW 15 24 30.24 1024 5 8 0.00 0.00
10:36 am 10:36 Cloudy with Light Rain 50 10 48 8.9 93 93 NNW 17 28 30.30 1026 2 3 0.00 0.00
10:53 am 10:53 Cloudy with Light Rain 48 8.9 46 7.8 93 93 N 23 37 30.30 1026 2 3 0.00 0.00
11:21 am 11:21 Cloudy with Mist and Fog 46 7.8 42 5.6 86 86 N 22 35 30.33 1027 4 6 0.00 0.00
11:53 am 11:53 Cloudy 47 8.3 42 5.6 83 83 NNW 14 22 30.32 1027 7 11 0.00 0.00
12:13 pm 12:13 Cloudy 47 8.3 40 4.4 77 77 NNW 22 35 30.35 1028 7 11 0.00 0.00
12:53 pm 12:53 Cloudy 48 8.9 39 3.9 71 71 N 20 31 30.33 1027 9 14 0.00 0.00
12:59 pm 12:59 Cloudy 48 8.9 38 3.3 68 68 NNW 20 31 30.35 1028 9 14 0.00 0.00
1:53 pm 13:53 Cloudy 49 9.4 36 2.2 61 61 N 17 28 30.34 1027 10 16 0.00 0.00
2:53 pm 14:53 Cloudy 51 10.6 35 1.7 54 54 N 17 28 30.36 1028 10 16 0.00 0.00
3:53 pm 15:53 Mostly Cloudy 52 11.1 35 1.7 53 53 N 16 26 30.38 1029 10 16 0.00 0.00
4:53 pm 16:53 Mostly Cloudy 50 10 34 1.1 54 54 N 20 31 30.40 1030 10 16 0.00 0.00
5:53 pm 17:53 Mostly Cloudy 49 9.4 30 -1.1 48 48 N 13 20 30.44 1031 10 16 0.00 0.00
6:53 pm 18:53 Cloudy 49 9.4 29 -1.7 46 46 N 15 24 30.48 1032 10 16 0.00 0.00
7:53 pm 19:53 Cloudy 48 8.9 26 -3.3 42 42 N 20 31 30.51 1033 10 16 0.00 0.00
8:53 pm 20:53 Cloudy 46 7.8 23 -5 40 40 NNE 16 26 30.54 1034 10 16 0.00 0.00
9:53 pm 21:53 Mostly Cloudy 43 6.1 22 -5.6 43 43 N 13 20 30.56 1035 10 16 0.00 0.00
10:53 pm 22:53 Mostly Cloudy 42 5.6 22 -5.6 45 45 N 12 19 30.57 1035 10 16 0.00 0.00
11:53 pm 23:53 Mostly Cloudy 41 5 22 -5.6 47 47 N 10 17 30.58 1036 10 16 0.00 0.00

Powered by AerisWeather